| time (UTC) | temp F | wind direction | speed knots | gust knots | rain 1hr in | rain 24hr in | rain mn in | humidity % | barometer mb |
| 20260906224516 | 77 | 90 | 4.3 | 7.8 | 0.00 | 0.00 | 0.00 | 73 | 1018.6 |
| 20260906223516 | 78 | 90 | 3.5 | 7.0 | 0.00 | 0.00 | 0.00 | 73 | 1018.3 |
| 20260906222516 | 78 | 113 | 3.5 | 7.0 | 0.00 | 0.00 | 0.00 | 72 | 1018.4 |
| 20260906221516 | 78 | 113 | 3.5 | 7.8 | 0.00 | 0.00 | 0.00 | 72 | 1018.3 |
| 20260906220516 | 77 | 90 | 2.6 | 6.1 | 0.00 | 0.00 | 0.00 | 74 | 1018.9 |
| 20260906215516 | 77 | 90 | 3.5 | 7.0 | 0.00 | 0.00 | 0.00 | 72 | 1019.1 |
| 20260906214516 | 78 | 90 | 3.5 | 6.1 | 0.00 | 0.00 | 0.00 | 72 | 1019.4 |
| 20260906213516 | 78 | 135 | 2.6 | 4.3 | 0.00 | 0.00 | 0.00 | 72 | 1019.4 |
| 20260906212516 | 78 | 113 | 3.5 | 7.0 | 0.00 | 0.00 | 0.00 | 71 | 1019.4 |
| 20260906211516 | 78 | 135 | 2.6 | 6.1 | 0.00 | 0.00 | 0.00 | 70 | 1019.7 |
| 20260906210516 | 78 | 113 | 2.6 | 3.5 | 0.00 | 0.00 | 0.00 | 72 | 1019.7 |
| 20260906205516 | 78 | 113 | 3.5 | 7.0 | 0.00 | 0.00 | 0.00 | 71 | 1019.7 |
| 20260906204516 | 78 | 135 | 2.6 | 4.3 | 0.00 | 0.00 | 0.00 | 72 | 1019.9 |
| 20260906203516 | 79 | 135 | 1.7 | 3.5 | 0.00 | 0.00 | 0.00 | 71 | 1020.1 |
| 20260906202516 | 79 | 113 | 3.5 | 7.8 | 0.00 | 0.00 | 0.00 | 70 | 1020.2 |
| 20260906201516 | 79 | 135 | 0.9 | 5.2 | 0.00 | 0.00 | 0.00 | 71 | 1020.6 |
| 20260906200516 | 79 | 90 | 2.6 | 5.2 | 0.00 | 0.00 | 0.00 | 70 | 1020.5 |
| 20260906195517 | 80 | 90 | 2.6 | 6.1 | 0.00 | 0.00 | 0.00 | 66 | 1020.6 |
| 20260906194516 | 79 | 135 | 2.6 | 7.0 | 0.00 | 0.00 | 0.00 | 71 | 1020.5 |
| 20260906193556 | 79 | 135 | 5.2 | 8.7 | 0.00 | 0.00 | 0.00 | 69 | 1020.4 |
| 20260906192516 | 79 | 135 | 4.3 | 7.8 | 0.00 | 0.00 | 0.00 | 69 | 1020.3 |
| 20260906191516 | 79 | 135 | 5.2 | 7.8 | 0.00 | 0.00 | 0.00 | 70 | 1020.5 |
| 20260906190516 | 78 | 135 | 2.6 | 7.8 | 0.00 | 0.00 | 0.00 | 74 | 1020.4 |
| 20260906185516 | 79 | 90 | 4.3 | 7.8 | 0.00 | 0.00 | 0.00 | 71 | 1020.9 |
| 20260906184536 | 79 | 135 | 4.3 | 7.8 | 0.00 | 0.00 | 0.00 | 69 | 1021.0 |
| 20260906183516 | 78 | 113 | 4.3 | 7.8 | 0.00 | 0.00 | 0.00 | 69 | 1021.1 |
| 20260906182515 | 77 | 113 | 2.6 | 6.1 | 0.00 | 0.00 | 0.00 | 75 | 1021.0 |
| 20260906181515 | 77 | 90 | 3.5 | 6.1 | 0.00 | 0.00 | 0.00 | 75 | 1021.1 |
| 20260906180516 | 76 | 113 | 3.5 | 9.6 | 0.00 | 0.00 | 0.00 | 76 | 1020.9 |
| 20260906175515 | 77 | 90 | 4.3 | 7.8 | 0.00 | 0.00 | 0.00 | 75 | 1021.0 |
| 20260906174535 | 77 | 90 | 3.5 | 7.0 | 0.00 | 0.00 | 0.00 | 76 | 1021.2 |
| 20260906173516 | 77 | 68 | 1.7 | 4.3 | 0.00 | 0.00 | 0.00 | 74 | 1021.2 |
| 20260906172515 | 77 | 135 | 2.6 | 4.3 | 0.00 | 0.00 | 0.00 | 74 | 1021.4 |
| 20260906171516 | 77 | 135 | 2.6 | 7.8 | 0.00 | 0.00 | 0.00 | 75 | 1021.2 |
| 20260906170556 | 76 | 113 | 2.6 | 7.0 | 0.00 | 0.00 | 0.00 | 77 | 1021.2 |
| 20260906165516 | 76 | 113 | 3.5 | 7.8 | 0.00 | 0.00 | 0.00 | 77 | 1021.4 |
| 20260906164516 | 76 | 135 | 2.6 | 7.0 | 0.00 | 0.00 | 0.00 | 76 | 1021.5 |
| 20260906163515 | 75 | 135 | 3.5 | 7.8 | 0.00 | 0.00 | 0.00 | 78 | 1021.4 |
| 20260906162516 | 75 | 135 | 2.6 | 7.8 | 0.00 | 0.00 | 0.00 | 78 | 1021.7 |
| 20260906161515 | 75 | 135 | 4.3 | 7.0 | 0.00 | 0.00 | 0.00 | 76 | 1021.7 |
| 20260906160516 | 74 | 135 | 1.7 | 6.1 | 0.00 | 0.00 | 0.00 | 78 | 1021.7 |
| 20260906155517 | 74 | 90 | 3.5 | 7.0 | 0.00 | 0.00 | 0.00 | 79 | 1021.8 |
| 20260906154515 | 74 | 135 | 3.5 | 7.0 | 0.00 | 0.00 | 0.00 | 80 | 1021.7 |
| 20260906153517 | 74 | 113 | 3.5 | 7.0 | 0.00 | 0.00 | 0.00 | 79 | 1021.6 |
| 20260906152535 | 73 | 135 | 4.3 | 7.8 | 0.00 | 0.00 | 0.00 | 80 | 1021.5 |
| 20260906151535 | 72 | 135 | 3.5 | 7.0 | 0.00 | 0.00 | 0.00 | 83 | 1021.4 |
| 20260906150557 | 70 | 113 | 4.3 | 8.7 | 0.00 | 0.00 | 0.00 | 85 | 1021.3 |
| 20260906145537 | 70 | 113 | 3.5 | 7.0 | 0.00 | 0.00 | 0.00 | 86 | 1021.2 |
| 20260906144515 | 69 | 90 | 3.5 | 6.1 | 0.00 | 0.00 | 0.00 | 89 | 1021.0 |
| 20260906143515 | 68 | 113 | 4.3 | 7.8 | 0.00 | 0.00 | 0.00 | 92 | 1021.0 |
| 20260906142517 | 67 | 113 | 3.5 | 5.2 | 0.00 | 0.00 | 0.00 | 96 | 1021.0 |
| 20260906141536 | 66 | 90 | 3.5 | 6.1 | 0.00 | 0.00 | 0.00 | 98 | 1021.0 |
| 20260906140517 | 65 | 68 | 2.6 | 6.1 | 0.00 | 0.00 | 0.00 | 98 | 1021.2 |
| 20260906135517 | 65 | 113 | 3.5 | 6.1 | 0.00 | 0.00 | 0.00 | 98 | 1021.2 |
| 20260906134515 | 64 | 90 | 2.6 | 6.1 | 0.00 | 0.00 | 0.00 | 98 | 1021.2 |
| 20260906133535 | 64 | 90 | 2.6 | 6.1 | 0.00 | 0.00 | 0.00 | 98 | 1020.9 |
| 20260906132515 | 64 | 90 | 0.9 | 2.6 | 0.00 | 0.00 | 0.00 | 98 | 1021.1 |
| 20260906131515 | 64 | 90 | 1.7 | 3.5 | 0.00 | 0.00 | 0.00 | 98 | 1021.0 |
| 20260906130515 | 63 | 68 | 1.7 | 3.5 | 0.00 | 0.00 | 0.00 | 98 | 1021.0 |
| 20260906125555 | 63 | 90 | 1.7 | 3.5 | 0.00 | 0.00 | 0.00 | 98 | 1020.8 |
| 20260906124515 | 63 | 90 | 2.6 | 4.3 | 0.00 | 0.00 | 0.00 | 98 | 1020.8 |
| 20260906123515 | 63 | 68 | 2.6 | 5.2 | 0.00 | 0.00 | 0.00 | 98 | 1020.6 |
| 20260906122515 | 63 | 90 | 2.6 | 5.2 | 0.00 | 0.00 | 0.00 | 98 | 1020.7 |
| 20260906121515 | 63 | 90 | 1.7 | 3.5 | 0.00 | 0.01 | 0.00 | 98 | 1020.5 |
| 20260906120539 | 63 | 90 | 1.7 | 3.5 | 0.00 | 0.01 | 0.00 | 98 | 1020.4 |
| 20260906115517 | 63 | 68 | 2.6 | 5.2 | 0.00 | 0.01 | 0.00 | 98 | 1020.2 |
| 20260906114517 | 63 | 90 | 2.6 | 5.2 | 0.00 | 0.01 | 0.00 | 98 | 1020.0 |
| 20260906113517 | 63 | 90 | 3.5 | 7.0 | 0.00 | 0.01 | 0.00 | 98 | 1019.7 |
| 20260906112519 | 63 | 90 | 2.6 | 6.1 | 0.00 | 0.01 | 0.00 | 98 | 1019.8 |
| 20260906111517 | 63 | 90 | 2.6 | 6.1 | 0.00 | 0.01 | 0.00 | 98 | 1020.0 |
| 20260906110517 | 63 | 90 | 2.6 | 4.3 | 0.00 | 0.01 | 0.00 | 98 | 1020.0 |
| 20260906105517 | 63 | 68 | 1.7 | 3.5 | 0.00 | 0.01 | 0.00 | 98 | 1019.8 |
| 20260906104517 | 63 | 45 | 1.7 | 3.5 | 0.00 | 0.01 | 0.00 | 98 | 1019.8 |
| 20260906103517 | 63 | 45 | 1.7 | 2.6 | 0.00 | 0.01 | 0.00 | 98 | 1019.7 |
| 20260906102517 | 63 | 0.0 | 1.7 | 0.00 | 0.01 | 0.00 | 98 | 1019.4 | |
| 20260906101517 | 63 | 68 | 1.7 | 3.5 | 0.00 | 0.01 | 0.00 | 98 | 1019.2 |
| 20260906100517 | 63 | 90 | 2.6 | 6.1 | 0.00 | 0.01 | 0.00 | 98 | 1019.0 |
| 20260906095517 | 64 | 90 | 1.7 | 3.5 | 0.00 | 0.01 | 0.00 | 98 | 1019.1 |
| 20260906094517 | 64 | 90 | 1.7 | 4.3 | 0.00 | 0.01 | 0.00 | 98 | 1019.1 |
| 20260906093517 | 64 | 90 | 1.7 | 3.5 | 0.00 | 0.01 | 0.00 | 98 | 1019.0 |
| 20260906092517 | 64 | 90 | 1.7 | 3.5 | 0.00 | 0.01 | 0.00 | 98 | 1019.2 |
| 20260906091517 | 64 | 90 | 2.6 | 7.0 | 0.00 | 0.01 | 0.00 | 98 | 1019.1 |
| 20260906090517 | 64 | 68 | 1.7 | 2.6 | 0.00 | 0.01 | 0.00 | 98 | 1019.1 |
| 20260906085517 | 64 | 90 | 0.9 | 2.6 | 0.00 | 0.01 | 0.00 | 98 | 1019.4 |
| 20260906084537 | 64 | 68 | 0.9 | 3.5 | 0.00 | 0.01 | 0.00 | 98 | 1019.5 |
| 20260906083557 | 64 | 45 | 1.7 | 3.5 | 0.00 | 0.01 | 0.00 | 98 | 1019.5 |
| 20260906082517 | 64 | 45 | 1.7 | 3.5 | 0.00 | 0.01 | 0.00 | 97 | 1019.4 |
| 20260906081537 | 64 | 68 | 0.9 | 2.6 | 0.00 | 0.01 | 0.00 | 98 | 1019.3 |
| 20260906080517 | 63 | 68 | 0.9 | 2.6 | 0.00 | 0.01 | 0.00 | 97 | 1019.2 |
| 20260906075517 | 63 | 68 | 0.9 | 2.6 | 0.00 | 0.01 | 0.00 | 97 | 1019.2 |
| 20260906074517 | 63 | 90 | 0.9 | 2.6 | 0.00 | 0.01 | 0.00 | 97 | 1019.4 |
| 20260906073517 | 63 | 0.0 | 2.6 | 0.00 | 0.01 | 0.00 | 97 | 1019.3 | |
| 20260906072517 | 64 | 45 | 0.9 | 2.6 | 0.00 | 0.01 | 0.00 | 97 | 1019.6 |
| 20260906071517 | 64 | 68 | 1.7 | 3.5 | 0.00 | 0.01 | 0.00 | 96 | 1019.5 |
| 20260906070517 | 64 | 68 | 0.9 | 2.6 | 0.00 | 0.01 | 0.00 | 96 | 1019.5 |
| 20260906065516 | 65 | 45 | 0.9 | 2.6 | 0.00 | 0.01 | 0.00 | 96 | 1019.5 |
| 20260906064537 | 65 | 0.0 | 0.0 | 0.00 | 0.01 | 0.00 | 96 | 1019.8 | |
| 20260906063517 | 66 | 113 | 1.7 | 3.5 | 0.00 | 0.01 | 0.00 | 96 | 1019.7 |
| 20260906062537 | 66 | 113 | 1.7 | 3.5 | 0.00 | 0.01 | 0.00 | 96 | 1019.6 |
| 20260906061537 | 66 | 0.0 | 2.6 | 0.00 | 0.01 | 0.00 | 96 | 1019.7 | |
| 20260906060516 | 66 | 90 | 1.7 | 2.6 | 0.00 | 0.01 | 0.00 | 96 | 1019.6 |
| 20260906055516 | 66 | 90 | 1.7 | 3.5 | 0.00 | 0.01 | 0.00 | 96 | 1019.5 |
| 20260906054517 | 66 | 90 | 1.7 | 2.6 | 0.00 | 0.01 | 0.00 | 96 | 1019.4 |
| 20260906053516 | 67 | 113 | 0.9 | 2.6 | 0.00 | 0.01 | 0.00 | 95 | 1019.3 |
| 20260906052517 | 67 | 0.0 | 0.0 | 0.00 | 0.01 | 0.00 | 95 | 1019.4 | |
| 20260906051517 | 67 | 0.0 | 0.0 | 0.00 | 0.01 | 0.00 | 95 | 1019.4 | |
| 20260906050517 | 67 | 0.0 | 2.6 | 0.00 | 0.01 | 0.00 | 95 | 1019.6 | |
| 20260906045515 | 67 | 0.0 | 0.0 | 0.00 | 0.01 | 0.01 | 94 | 1019.6 | |
| 20260906044515 | 68 | 0.0 | 0.0 | 0.00 | 0.01 | 0.01 | 94 | 1019.8 | |
| 20260906043515 | 68 | 0.0 | 0.0 | 0.00 | 0.01 | 0.01 | 93 | 1019.8 | |
| 20260906042517 | 68 | 0.0 | 0.0 | 0.00 | 0.01 | 0.01 | 93 | 1019.9 | |
| 20260906041535 | 69 | 90 | 0.9 | 3.5 | 0.00 | 0.01 | 0.01 | 93 | 1019.7 |
| 20260906040515 | 69 | 90 | 1.7 | 5.2 | 0.00 | 0.01 | 0.01 | 92 | 1019.6 |
| 20260906035515 | 69 | 0.0 | 1.7 | 0.00 | 0.01 | 0.01 | 92 | 1019.5 | |
| 20260906034515 | 69 | 90 | 1.7 | 2.6 | 0.00 | 0.01 | 0.01 | 92 | 1019.1 |
| 20260906033535 | 69 | 90 | 1.7 | 3.5 | 0.00 | 0.01 | 0.01 | 93 | 1019.0 |
| 20260906032535 | 69 | 90 | 1.7 | 5.2 | 0.00 | 0.01 | 0.01 | 92 | 1018.8 |
| 20260906031515 | 69 | 90 | 1.7 | 4.3 | 0.00 | 0.01 | 0.01 | 92 | 1018.4 |
| 20260906030535 | 69 | 68 | 0.9 | 3.5 | 0.00 | 0.01 | 0.01 | 92 | 1018.6 |
| 20260906025537 | 70 | 90 | 1.7 | 3.5 | 0.00 | 0.01 | 0.01 | 91 | 1018.6 |
| 20260906024517 | 70 | 68 | 0.9 | 4.3 | 0.00 | 0.01 | 0.01 | 90 | 1018.7 |
| 20260906023519 | 71 | 90 | 2.6 | 6.1 | 0.00 | 0.01 | 0.01 | 90 | 1018.3 |
| 20260906022517 | 71 | 90 | 2.6 | 6.1 | 0.00 | 0.01 | 0.01 | 89 | 1018.1 |
| 20260906021517 | 71 | 90 | 2.6 | 8.7 | 0.00 | 0.01 | 0.01 | 90 | 1018.0 |
| 20260906020517 | 72 | 68 | 3.5 | 7.0 | 0.00 | 0.01 | 0.01 | 89 | 1018.1 |
| 20260906015517 | 72 | 90 | 4.3 | 7.8 | 0.00 | 0.01 | 0.01 | 89 | 1017.7 |
| 20260906014517 | 72 | 113 | 3.5 | 9.6 | 0.00 | 0.01 | 0.01 | 88 | 1017.6 |
| 20260906013517 | 73 | 90 | 3.5 | 10.4 | 0.00 | 0.01 | 0.01 | 88 | 1017.4 |
| 20260906012517 | 73 | 90 | 3.5 | 6.1 | 0.00 | 0.01 | 0.01 | 88 | 1017.2 |
| 20260906011557 | 73 | 90 | 4.3 | 7.8 | 0.00 | 0.01 | 0.01 | 88 | 1016.9 |
| 20260906010517 | 73 | 90 | 4.3 | 7.8 | 0.00 | 0.01 | 0.01 | 87 | 1016.8 |
| 20260906005517 | 73 | 90 | 2.6 | 6.1 | 0.00 | 0.01 | 0.01 | 87 | 1016.7 |
| 20260906004537 | 73 | 68 | 1.7 | 6.1 | 0.00 | 0.01 | 0.01 | 87 | 1016.7 |
| 20260906003517 | 73 | 90 | 2.6 | 5.2 | 0.00 | 0.01 | 0.01 | 88 | 1016.6 |
| 20260906002537 | 73 | 68 | 0.9 | 2.6 | 0.00 | 0.01 | 0.01 | 89 | 1016.5 |
| 20260906001537 | 73 | 90 | 2.6 | 6.1 | 0.00 | 0.01 | 0.01 | 89 | 1016.5 |
| 20260906000517 | 73 | 68 | 1.7 | 3.5 | 0.00 | 0.01 | 0.01 | 90 | 1016.7 |
| 20260905235537 | 73 | 68 | 3.5 | 7.8 | 0.00 | 0.01 | 0.01 | 90 | 1016.6 |
| 20260905234517 | 74 | 90 | 1.7 | 3.5 | 0.00 | 0.01 | 0.01 | 87 | 1016.8 |
| 20260905233517 | 74 | 0.0 | 1.7 | 0.00 | 0.01 | 0.01 | 86 | 1016.9 | |
| 20260905232559 | 74 | 0.0 | 0.0 | 0.00 | 0.01 | 0.01 | 85 | 1017.1 | |
| 20260905231517 | 75 | 90 | 0.9 | 2.6 | 0.00 | 0.01 | 0.01 | 86 | 1017.2 |
| 20260905230517 | 75 | 0.0 | 0.0 | 0.00 | 0.01 | 0.01 | 87 | 1017.5 | |
| 20260905225537 | 75 | 0.0 | 0.0 | 0.00 | 0.01 | 0.01 | 87 | 1017.6 |